sat.trackr.live / text

‹ back to catalog

SPAINSAT NG I

NORAD 62852 · 2025-021A

PAYLOAD ACTIVE UNKNOWN

§ Identity

Operator
Country
SPN
Launch date
2025-01-30
Launch site
AFETR
Launch vehicle
Mass (kg)
RCS (m²)

Purposes: comms

External: N2YO · Heavens-Above · Gunter

§ Orbital elements

Epoch: 2026-09-19T05:08:05.858016Z

Period
1,436.09 min
Inclination
0.0165°
Eccentricity
0.0000398
Mean motion
1.00272449 rev/d
Perigee alt
35,784.7 km
Apogee alt
35,788.1 km
Semi-major
42,164.5 km
B*
0.0000e+0
RAAN
157.3639°
Arg perigee
324.7884°
Mean anomaly
341.9871°
Rev number
493

§ Raw data

SPAINSAT NG I1 62852U 25021A   26262.21395669  .00000000  00000+0  00000+0 0  99902 62852   0.0165 157.3639 0000398 324.7884 341.9871  1.00272449  4935

JSON: /api/v1/satellites/62852 · /tle

For live sub-satellite position, see the globe view (requires WebGL).

§ Visibility from observer

Set your observer location to see the next 7 days of passes ≥ 10°. The values pass through the URL so the page stays shareable.

No JS? Fill the form by hand. The geolocation button needs JavaScript.